This is the latest recevied weather packets stored in our database for station/object N5CSU. If no packets are shown the sender has not sent any weather packets the latest 10 day(s).
| Time | Temp. | Humidity | Pressure | Rain* | Wind** | Luminosity | Snow |
|---|---|---|---|---|---|---|---|
| 1778086977 | 12.78° C | 92% | 1015.1 hPa | 0 mm | - | 7 W/m² | - |
| 1778086676 | 12.78° C | 91% | 1014.8 hPa | 0 mm | - | 7 W/m² | - |
| 1778086373 | 12.78° C | 90% | 1014.3 hPa | 0 mm | - | 8 W/m² | - |
| 1778086069 | 12.78° C | 90% | 1014 hPa | 0 mm | - | 8 W/m² | - |
| 1778085766 | 13.33° C | 90% | 1014.6 hPa | 0 mm | - | 7 W/m² | - |
| 1778085463 | 13.33° C | 90% | 1014.5 hPa | 0 mm | - | 8 W/m² | - |
| 1778085158 | 13.33° C | 90% | 1014.4 hPa | 0 mm | - | 15 W/m² | - |
| 1778084854 | 13.89° C | 90% | 1014.6 hPa | 0 mm | - | 13 W/m² | - |
| 1778084552 | 13.33° C | 90% | 1014.9 hPa | 0 mm | - | 24 W/m² | - |
| 1778084249 | 13.33° C | 91% | 1014.8 hPa | 0 mm | - | 68 W/m² | - |
| 1778083946 | 12.78° C | 92% | 1015 hPa | 0 mm | - | 67 W/m² | - |
| 1778083644 | 12.78° C | 92% | 1015.1 hPa | 0 mm | - | 37 W/m² | - |
| 1778083340 | 12.78° C | 92% | 1015.1 hPa | 0 mm | - | 29 W/m² | - |
| 1778083039 | 12.78° C | 92% | 1015.2 hPa | 0 mm | - | 26 W/m² | - |
| 1778082736 | 12.22° C | 93% | 1015.1 hPa | 0 mm | - | 18 W/m² | - |
| 1778081604 | 12.78° C | 91% | 1014.8 hPa | 0 mm | - | 9 W/m² | - |
| 1778081301 | 12.78° C | 89% | 1014.8 hPa | 0 mm | - | 6 W/m² | - |
| 1778080998 | 12.78° C | 85% | 1015.9 hPa | 0 mm | - | 3 W/m² | - |
| 1778080697 | 12.78° C | 85% | 1016.4 hPa | 0 mm | - | 2 W/m² | - |
| 1778080393 | 13.33° C | 85% | 1016.4 hPa | 0 mm | - | 2 W/m² | - |
| 1778080090 | 13.33° C | 85% | 1015.9 hPa | 0 mm | - | 3 W/m² | - |
| 1778079787 | 13.33° C | 85% | 1015.6 hPa | 0 mm | - | 5 W/m² | - |
| 1778079484 | 13.33° C | 85% | 1015.2 hPa | 0 mm | - | 7 W/m² | - |
| 1778079180 | 12.78° C | 86% | 1015 hPa | 0 mm | - | 6 W/m² | - |
| 1778078878 | 12.78° C | 85% | 1015.1 hPa | 0 mm | - | 4 W/m² | - |
* Rain latest hour (hover to see other rain measurements)
** Current wind speed in m/s (hover to see current wind gust speed)